Lid_Strength_Index
3 2 2 2 2 2 2 2 1 1 1 1 1 1 1 1 2 7 11 8 5 2 2 6 8 9 10 10 8 9 13 15 14 14 13 11 12 11 10 11 11 9 9 6 7
2 3 3 2 2 2 2 2 2 2 2 1 1 1 2 2 5 9 6 3 3 2 8 10 11 11 13 11 10 12 15 14 13 13 13 12 13 13 13 13 13 11 9 8 7
3 2 2 2 3 3 2 2 2 2 2 2 2 2 2 3 8 10 4 3 2 3 7 9 10 11 13 12 12 12 14 12 13 12 12 13 13 13 14 14 12 13 12 9 9
3 3 3 3 2 1 2 2 2 2 2 2 2 2 2 6 13 10 3 2 2 5 8 10 11 13 14 14 12 14 12 13 11 12 12 14 13 14 13 13 12 12 13 10 9
2 3 3 3 3 3 2 2 1 2 3 3 3 3 7 11 12 9 5 6 8 9 11 10 12 13 14 14 13 14 14 13 13 12 13 13 14 14 14 13 12 12 12 13 10
2 2 2 2 2 2 2 2 2 2 3 3 3 3 9 14 10 10 10 9 9 10 11 10 11 11 14 14 15 14 14 14 14 14 14 15 16 15 14 14 13 13 13 13 13
1 2 1 1 1 1 1 2 2 3 4 4 4 6 10 13 10 10 9 10 10 10 11 10 10 12 13 14 13 13 16 15 15 15 15 16 17 17 14 13 14 14 14 14 13
2 2 1 1 1 1 1 1 1 2 4 5 5 9 13 10 11 10 10 11 10 10 10 10 10 12 13 13 14 16 17 19 16 16 16 17 18 15 14 15 15 14 14 14 13
2 2 1 1 1 1 1 1 2 3 4 3 9 11 13 8 11 11 11 12 11 10 10 9 11 13 14 17 18 17 20 19 17 16 17 18 18 15 15 15 15 15 14 14 14
2 2 1 1 1 1 1 1 3 6 6 6 9 13 13 13 11 10 10 10 11 11 11 12 13 16 17 18 20 19 19 18 19 17 17 18 17 14 14 14 14 14 14 15 14
3 2 2 2 1 1 3 8 9 10 10 12 12 12 12 10 10 11 10 11 11 13 16 14 17 18 17 17 16 17 19 19 18 16 17 18 17 15 14 15 16 15 15 15 15
3 3 2 2 2 2 7 11 12 12 13 11 12 12 11 11 13 12 10 14 14 16 15 17 19 16 15 15 16 18 19 19 17 16 17 18 17 14 14 15 15 15 16 15 15
4 4 3 2 2 6 10 10 8 10 14 12 12 12 12 11 13 13 12 14 16 17 17 18 17 15 16 17 17 18 19 19 19 18 17 19 18 16 15 15 15 15 15 15 14
5 4 3 2 5 7 10 8 8 10 17 14 14 13 12 12 15 12 12 13 15 17 17 17 16 16 18 18 17 19 18 18 18 21 23 19 22 18 16 15 15 15 16 15 14
5 4 3 2 6 7 8 9 10 10 20 14 15 12 13 15 14 14 13 14 17 17 18 18 18 18 18 17 17 19 17 18 18 21 25 23 24 19 16 16 16 16 15 16 15
5 4 4 4 6 7 7 9 10 15 19 16 15 15 16 15 15 14 14 14 15 17 18 18 16 17 17 17 16 16 18 18 19 23 27 24 23 20 18 16 15 15 15 14 14
5 5 5 3 7 6 7 8 16 17 14 17 17 15 16 17 16 15 16 18 19 20 20 19 19 17 16 18 17 18 20 25 25 25 24 21 24 19 17 16 17 15 15 15 14
5 5 4 3 5 6 7 13 18 21 18 14 15 15 16 16 17 16 17 18 17 17 18 20 21 18 16 18 18 19 19 23 27 25 23 21 24 19 16 16 15 14 14 14 14
5 8 5 4 4 6 9 18 20 17 13 15 15 16 17 17 17 17 17 17 16 16 18 19 19 17 16 16 17 19 21 18 25 30 26 22 20 16 16 16 15 15 14 14 15
7 7 5 2 4 6 12 16 17 12 11 12 15 15 18 17 18 18 17 16 16 15 15 17 20 17 17 16 15 17 17 20 21 25 28 23 22 19 18 17 15 15 14 14 14
8 9 5 2 3 7 14 18 15 11 9 11 15 14 14 17 17 19 18 15 15 15 15 16 18 19 18 18 18 19 19 18 17 19 23 25 21 16 17 16 14 14 14 14 13
8 13 6 3 9 10 15 16 11 11 8 10 11 13 14 13 15 16 17 14 12 13 16 15 17 22 19 18 17 17 18 17 21 23 22 22 21 14 15 14 12 13 13 12 12
12 12 6 5 12 13 11 11 10 10 10 10 11 10 11 12 17 15 16 12 11 12 14 13 19 24 20 17 16 17 16 16 17 18 22 22 20 14 13 13 11 12 13 13 12
10 15 11 8 9 11 13 12 14 9 9 8 9 10 12 13 12 17 15 12 11 13 8 10 16 18 19 17 16 17 16 15 16 23 20 19 17 13 12 12 12 12 13 13 13
9 13 14 21 12 11 10 13 15 15 10 9 11 10 12 15 13 15 14 12 12 10 11 13 20 18 17 15 15 14 14 16 17 17 19 15 16 13 12 12 12 11 13 13 13
10 12 13 17 13 13 13 13 13 12 12 13 12 11 11 13 12 15 12 12 12 13 13 13 21 20 21 19 15 15 14 15 15 15 15 14 15 10 10 11 12 13 14 14 14
6 6 7 12 13 15 14 13 13 12 11 10 10 12 12 11 9 10 9 10 11 13 15 16 18 19 20 21 21 20 16 14 14 14 13 16 13 12 12 12 12 13 14 13 14